Regional Weather Roundup
Issued by NWS Upton, NY

Current Version | Previous Version | Text Only | Print | Product List | Glossary Off
Versions: 1 2 3 4 5 6 7 8 9 10 11 12 13 14 15 16 17 18 19 20 21 22 23 24 25 26 27
000 ASUS41 KOKX 230508 RWROKX REGIONAL WEATHER ROUNDUP NATIONAL WEATHER SERVICE NEW YORK NY 100 AM EDT WED AUG 23 2017 NOTE: "FAIR" INDICATES FEW OR NO CLOUDS BELOW 12,000 FEET WITH NO SIGNIFICANT WEATHER AND/OR OBSTRUCTIONS TO VISIBILITY. NYZ071-072-176-178-NJZ106-104-230600- NEW YORK CITY METRO AREA CITY SKY/WX TMP DP RH WIND PRES REMARKS Central Park RAIN 72 70 93 SW5 29.82F FOG Bronx Bot Gard N/A 72 68 88 S3 29.81S LaGuardia APRT TSTM 74 71 91 SW10 29.79F Kennedy INTL TSTM 74 73 97 W15 29.82S Breezy Point N/A 72 N/A N/A W6 N/A Newark/Liberty LGT RAIN 73 71 93 S8 29.78F FOG Teterboro TSTM 73 71 93 S7 29.77F $$ NYZ177-179-078>081-230600- LONG ISLAND NEW YORK CITY SKY/WX TMP DP RH WIND PRES REMARKS Jones Beach N/A 72 N/A N/A W12G20 N/A Matinecock PT N/A 73 N/A N/A SW17 N/A Farmingdale RAIN 73 71 93 W10 29.80F FOG MacArthur/ISP LGT RAIN 75 74 96 W9 29.79F Shirley LGT RAIN 78 77 96 SW12G21 29.80S Mt Sinai Harb N/A 73 N/A N/A SW8 N/A Westhampton LGT RAIN 76 72 87 SW20G28 29.81S East Hampton CLOUDY 75 73 93 SW12G25 29.79S Montauk N/A 75 73 93 SW14G24 29.80R $$ NYZ052-065-067-230600- HUDSON VALLEY CITY SKY/WX TMP DP RH WIND PRES REMARKS White Plains RAIN 73 70 90 VRB6 29.79F FOG Larchmont Harb N/A 73 N/A N/A SW13 N/A Croton On Huds N/A 73 N/A N/A SW12G17 N/A Newburgh CLOUDY 73 73 100 SW8 29.78R Montgomery CLOUDY 73 70 90 SW13 29.76R Poughkeepsie LGT RAIN 74 71 91 SW8 29.74F Albany CLOUDY 72 68 87 S9 29.70R $$ NJZ001-105-106-008-010-013-015-019>022-104-230600- NEW JERSEY CITY SKY/WX TMP DP RH WIND PRES REMARKS Newark/Liberty LGT RAIN 73 71 93 S8 29.78F FOG Teterboro TSTM 73 71 93 S7 29.77F Caldwell CLOUDY 72 72 100 VRB5 29.78F Somerville CLOUDY 72 72 100 CALM 29.79S Linden LGT RAIN 73 70 92 CALM 29.79F Perth Amboy N/A 72 N/A N/A S6 N/A Sussex CLOUDY 72 70 93 CALM 29.79S Andover N/A 71 69 93 SW3 29.81S Trenton CLOUDY 73 71 93 S5 29.80F Millville CLOUDY 81 78 91 CALM 29.81F Atlantic City PTCLDY 80 75 84 SW7 29.81F Wrightstown LGT RAIN 72 70 93 SW20 29.80F Toms River TSTM 73 72 96 W14 29.86R FOG Belmar TSTM 72 71 97 W6 29.84R $$ PAZ047>061-062-071-230600- EASTERN PENNSYLVANIA CITY SKY/WX TMP DP RH WIND PRES REMARKS Philadelphia RAIN 75 71 87 SW20 29.81F FOG Allentown CLOUDY 74 70 87 S7 29.81R Scranton MOCLDY 72 70 93 SW7 29.81R THUNDER $$ CTZ002-004>006-009-010-012-RIZ004-006-007-MAZ004-011-015-230600- SOUTHERN NEW ENGLAND IN CT CITY SKY/WX TMP DP RH WIND PRES REMARKS Bradley INTL CLOUDY 75 73 93 SW13 29.72S Hartford CLOUDY 77 74 90 SW10 29.73R Danbury LGT RAIN 74 71 91 SW14 29.79R Wtrbury/Oxford LGT RAIN 73 72 94 SW12G17 29.79R Norwalk Harbor N/A 73 N/A N/A SW20 N/A Bridgeport RAIN 75 71 87 SW16G26 29.77R FOG Meriden LGT RAIN 76 73 91 S10 29.75R New Haven RAIN 75 71 87 SW15G30 29.78R Chester LGT RAIN 75 73 94 SW12G24 29.78R Groton LGT RAIN 75 72 90 SW17G28 29.76S Wilimantic LGT RAIN 76 74 93 SW8 29.74S IN RI CITY SKY/WX TMP DP RH WIND PRES REMARKS Providence CLOUDY 77 73 87 SW14G26 29.76R Block Island CLOUDY 73 71 93 SW22 29.79S Westerly CLOUDY 75 72 90 SW14G21 29.78S IN MA CITY SKY/WX TMP DP RH WIND PRES REMARKS Boston NOT AVBL Worcester RAIN 73 70 90 SW15 29.75R FOG Westfield CLOUDY 73 72 96 S8 29.71R Provincetown CLOUDY 73 70 90 SW21G31 29.78R Nantucket CLOUDY 70 70 100 SW15G25 29.83R FOG $$ ANZ330-335-338-340-345-350-353-355-230600- COASTAL MARINE OBSERVATIONS STATION/POSITION TIME SKY/WX TEMP WIND PRES VSBY WAVE AIR SEA DIR/SP/G HT/PER (UTC) (F) (DEG/KT/KT) (MB) (MI) (FT/S) NY HARB ENTRANCE 0350 76 75 240/ 16/ 19 1009.1 6/ 6 GREAT SOUTH BAY 0415 77 79 240/ 19/ 27 N/A 23 SSW MONTAUK P 0350 75 73 1008.9 7/ 6 15 E BARNEGAT LI 0430 76 N/A 7/ 7 HUDSON CANYON 0350 77 76 200/ 21/ 25 1009.7 6/ 6 KINGS POINT 0430 74 75 260/ 16/ 19 1009.0 EXECUTION ROCKS NOT AVBL WESTERN LI SOUND NOT AVBL CENTRAL LI SOUND NOT AVBL EASTERN LI SOUND NOT AVBL ROBBINS REEF 0430 260/ 14/ 18 1010.1 $$ >>>>>>>>>>>>>>>>>>>>>>>>>>>> KEY <<<<<<<<<<<<<<<<<<<<<<<<<<< > < > SKY/WX - Sky Condition/Present Weather < > TMP - Temperature in Fahrenheit < > DP - Dew Point in Fahrenheit < > RH - Relative Humidity in Percent < > WIND - Direction (from) and Speed in MPH < > PRES - Mean Sea Level Pressure (inches of Hg) < > WCI - Wind Chill Index < > VSB - VISIBILITY IN MILES < > HX - HEAT INDEX < > TC - TEMPERATURE IN CELSIUS < > VRB - VARIABLE WIND DIRECTION < > < >>>>>>>>>>>>>>>>>>>>>>>>>>>> KEY <<<<<<<<<<<<<<<<<<<<<<<<<<<

USA.gov is the U.S. government's official web portal to all federal, state and local government web resources and services.